Location: Unspecified
(40.7945°N, 111.1337°W)
Time: 04:09:59
(UTC-06:00)

Cosmos 1674 - Pass Details

Date: 22 March 2019
Orbit: 497 x 518 km, 82.5° (Epoch: 24 April)

Event Time Altitude Azimuth Distance (km) Brightness Sun altitude
Rises 22:06:07 0° 342° (NNW) 2,605 6.9 -27.6°
Reaches altitude 10° 22:08:22 10° 334° (NNW) 1,719 6.0 -28.0°
Enters shadow 22:11:04 31° 293° (WNW) 906 4.4 -28.4°
